Date,TemperatureHighF,TemperatureAvgF,TemperatureLowF,DewpointHighF,DewpointAvgF,DewpointLowF,HumidityHigh,HumidityAvg,HumidityLow,PressureMaxIn,PressureMinIn,WindSpeedMaxMPH,WindSpeedAvgMPH,GustSpeedMaxMPH,PrecipitationSumIn
2013-12-1,50.2,47.5,45.3,48.0,44.9,41.4,97,91,80,30.61,30.54,5,2,10,0.00
2013-12-2,50.5,47.3,45.5,45.9,43.8,41.2,92,88,82,30.57,30.39,8,5,17,0.00
2013-12-3,52.2,48.5,42.1,51.1,47.0,41.0,97,94,91,30.39,30.25,12,6,21,0.39
2013-12-4,47.8,42.5,37.2,43.3,39.3,35.1,96,89,78,30.56,30.39,15,4,25,0.01
2013-12-5,50.5,48.0,43.2,49.1,44.2,41.0,95,87,79,30.44,30.24,22,12,40,0.08
2013-12-6,50.7,46.8,42.6,48.2,45.1,40.6,97,94,88,30.43,30.35,10,6,20,0.02
2013-12-7,52.0,49.1,45.3,50.4,47.0,42.8,96,92,89,30.35,30.12,12,7,21,0.08
2013-12-8,53.8,52.9,51.8,52.3,51.5,50.2,97,95,94,30.15,30.09,17,12,29,0.06
2013-12-9,53.2,51.4,49.3,51.8,48.8,45.5,95,91,83,30.17,30.05,14,9,23,0.00
2013-12-10,55.8,53.1,50.2,53.6,50.8,47.8,94,92,89,30.10,30.02,13,9,27,0.00
2013-12-11,54.7,52.5,50.7,52.5,49.4,47.5,94,89,85,30.11,29.87,16,10,31,0.02
2013-12-12,58.1,56.0,53.4,56.7,54.4,51.6,97,94,90,29.87,29.71,12,8,25,0.02
2013-12-13,55.9,49.4,43.5,54.0,45.6,38.1,96,87,77,30.00,29.62,20,11,37,0.10
2013-12-14,54.7,49.5,44.8,53.2,47.1,40.3,96,91,77,29.98,29.43,25,12,48,0.94
2013-12-15,50.4,46.8,43.3,47.5,44.0,38.8,96,90,80,29.88,29.55,15,8,31,0.30
2013-12-16,49.5,43.8,38.7,44.6,39.4,35.2,92,84,73,30.06,29.57,17,7,31,0.20
2013-12-17,48.4,44.7,39.7,46.4,41.1,37.4,95,87,82,30.10,29.52,19,11,35,0.11
2013-12-18,52.5,48.1,39.6,51.3,45.3,34.7,97,90,74,29.52,28.75,34,14,60,0.57
2013-12-19,43.0,39.4,35.4,39.0,36.2,33.1,94,88,72,29.72,29.12,18,9,33,0.28
2013-12-20,53.2,47.7,40.6,52.0,45.2,38.3,98,91,80,29.81,29.42,23,13,41,0.63
2013-12-21,50.5,46.1,40.1,45.5,42.1,37.4,94,86,76,29.57,29.38,21,13,35,0.57
2013-12-22,45.3,40.0,36.3,40.8,37.0,33.8,96,89,78,29.66,29.42,20,10,36,0.61
2013-12-23,51.6,45.9,38.7,50.7,43.5,35.8,98,91,78,29.59,28.35,26,13,48,0.39
2013-12-24,44.2,40.9,37.4,40.6,36.6,30.4,97,85,61,28.73,28.33,31,14,58,0.65
2013-12-25,46.6,41.0,37.4,41.7,37.8,34.5,95,88,81,29.14,28.73,10,4,19,0.04
2013-12-26,49.6,41.8,36.3,47.8,39.9,34.5,97,93,82,29.35,28.25,31,10,57,0.48
2013-12-27,48.6,44.2,39.4,46.2,42.0,37.8,96,92,87,29.08,28.20,33,17,56,0.61
2013-12-28,46.8,40.1,37.0,43.0,37.8,35.2,96,91,80,29.76,29.09,9,5,18,0.02
2013-12-29,49.1,42.8,37.8,48.2,41.0,34.0,98,93,86,29.83,29.41,16,8,32,0.51
2013-12-30,48.0,44.4,41.2,45.5,42.6,40.1,98,93,81,29.58,29.21,15,6,31,0.23
2013-12-31,47.8,43.0,39.9,45.7,40.4,37.4,96,91,77,29.24,29.07,18,9,37,0.27